Race Results for
US MTB National Championships - Mammoth
Mammoth, CA
(Event Information)
This is a non-competitive event
KAMIKAZE on 09/25/2004

Note: Ranking points are NOT upgrade points. An explanation of ranking points can be found here.


Men - Junior - 1-18

 Place NameCity, StateTime USAC #BibTeam
1JAKE CAPRIOTTI   05:31.06  1189 SDG/ROMIC/
2Stephen Thomsen   Santa Barbara, CA05:51.21 208685  1235 
3Anthony Brownrigg   Seattle, WA05:57.32 209401  403 TMC
4Benjamin Hulse   Mooresville, NC06:02.11 211866  1208 
5Bret McCaughin-Strong   Idyllwild, CA06:08.51 164319  497 IDYLLWILD
6David Pratt   Fort Collins, CO06:21.08 213307  555 LOU DEANGE
7TAYLOR WOODS   06:25.64  1564 
8Robert Rhall   Blue Lake Ca06:33.30 218117  1119 661
9Tyler Krahulec   Silverthorne, CO06:37.84 192312  945 GRAVITEE
10Parker Worthington   Mooresville, NC06:42.83 211836  1149 661/RICHAR
11Ryan Crooks   Allen Park, MI06:46.56 183952  1179 HIGH GEAR
DNFT Fisker   Tucson, AZDNF 200762  1211 JUGJULAR/G

Men - Pro

 Place NameCity, StateTime USAC #BibTeam
1John Tomac   Cortez, CO04:59.10 40324  1433 KENDA/TOMA
2Colin Bailey   Redlands, CA05:05.73 2263  1153 MAXXIS TIR
3LOU DEANGELES   05:13.90  1555 AZONIC
4Kirt Voreis   Bend, OR05:14.58 36812  77 SANTA CRUZ
5Darrell Young   Portland, OR05:19.55 43482  1326 ARROW RACI
6RYAN SMTIH   05:36.89  1421 
7Pat Monnahan   Mammoth Lakes, CA05:51.88 212412  1147 DIRT JERKS
8Steve Hlebo   Los Gatos, CA14:35.64 148514  340 RISSEL/ABS
DNFAlex Morgan   AmarilloDNF 25033  91 BCDRACING
DNFMichael Hutchison   Sherman Oaks, CADNF 127139  1166 TURNER/661
DNFRALF KALCHHAUSER   DNF  1424 DECLINE

Men - EX

 Place NameCity, StateTime USAC #BibTeam
1GUY COMER   05:26.76  1281 SO CAL SKI
2Don Jackson   Riverside, CA05:33.37 17510  1095 ODI/SOUTHR
3George Hopper   Modesto, CA05:36.52 147296  1194 SWD BIKES
4Kevin Matthes   Escondido, CA05:40.22 112091  1138 BEYOND BIK
5Rick Nunez   San Diego, CA05:41.23 202140  1253 BEYOND BIK
6BEN RAYBOULD   05:43.93  1279 
7Bobby Bondurant   Big Bear City, CA05:45.98 107266  1256 DEPRAVED A
8Brian Hapgood   San Francisco, CA05:45.99 199856  1233 SWD
9Jon Martin   Arcata, CA05:49.63 169689  492 WING INFLA
10Moses Cruz   Tempe, AZ05:49.85 132796  1270 NO BRAKES
11Christopher Filipiak   Asheville, NC05:50.62 176053  1168 WHEELS IN
12Brian Richling   Apple Valley, CA05:57.52 29770  934 DOWNHILLXX
13Michael Yares   Phoenix, AZ06:14.32 39161  1268 NO BRAKES/
14Gary DeWeese   Phoenix, AZ06:22.03 90189  877 NO BRAKES/
15TOM SPIEGEL   08:49.94  1599 TEAMBIGBEA
DNPWilliam Roussel   Ashland, ORDNS 129714  1273 WTB
DNFHeath Sherratt   Roseville, CADNF 189953  650 CANNONDALE
DNFNick Newman   Draper, UTDNF 153793  1387 

Men - SP

 Place NameCity, StateTime USAC #BibTeam
1BOONE JONES   05:32.35  1108 SHERWINS R
2Ricky Richardson   El Dorado, CA05:36.76 142967  576 SAKCHEK
3Ryan Cockroft   Rancho Palos Verdes, CA05:42.38 160887  1457 MAMMOTH/OA
4MICHAEL DAVID   05:47.68  1483 TROY LEE D
5Christopher Grodell   Valencia, CA05:48.50 142727  858 AZONIC
6John Casey   Berkeley, CA05:58.02 135147  417 CPC/AZONIC
7Doug Frei   Inkom, ID06:03.64 187494  1065 POCATELLO
8MATT CLAUSEN   06:09.87  968 
9ANTHONY TRUJILLO   06:25.43  1404 FOXSHOX
10Chris Sartain   Mountain View, CA07:10.70 218138  1515 
DNFMIKE MAGUIRE   DNF  488 
DNFMARK FABRO   DNF  747 
DNFLOGAN BANNWARTH   DNF  1414 SNAC
DNFTODD AYERS   DNF  700 

Men - BG

 Place NameCity, StateTime USAC #BibTeam
1SCOTT SHEER   05:56.58  1520 
2Clayton Mendel   Mammoth Lakes, CA06:02.35 214636  1117 
3Michael Kelley   Moorpark, CA06:14.14 162080  815 KHS
4NICKO HOUTIER   06:20.06  1365 
5David Zoller   Littleton, MA06:21.10 201893  1491 WACHUSITT
6Keith Campbell   Escondido, CA06:33.23 215244  969 
7Daniel Carapellotti   Mission Viejo, CA06:37.60 169134  1348 
8ADAM NITTE   06:39.79  938 
9DAVID BARDWELL   06:42.40  1035 
10HARRY LYONS   06:48.44  485 CRASH RACI
11KRAIG DUNEHEW   06:56.73  737 DIAMONDBAC
DNFGEORGE CONTENTO   DNF  435 
DNFJOE ZIGULIS   DNF  639 
DNFTIMOTHY HICKEY   DNF  778 WEEZIN GEE
DNFMARIO GOSALVEZ   DNF  851 

Women - Wheelchair

 Place NameCity, StateTime USAC #BibTeam
1Ana Acton   N San Juan, CA08:03.68 174748  1532 TEAM PHOEN

Women - Pro

 Place NameCity, StateTime USAC #BibTeam
1Kathi Krause   Fair Lawn, NJ05:56.38 19792  1155 ARROW
2Paula Santerior   Reno, NV06:00.76 31276  1047 
3Emily Johnston   Broomfield, CO06:16.97 173609  TLD/SMITH/
4Teresa Hill   Vista, CA06:26.39 16211  1295 SANTA CRUZ
5Jill Hamilton   Bonsall, CA06:52.90 147881  1007 HARO-ADIDI
6Donna Vargas   Mission Viejo, CA06:53.69 194526  1269 VELOSPORT-
DNFKIM HUNTER   DNF  792 STANS BICY

Women - BG

 Place NameCity, StateTime USAC #BibTeam
1HEATHER PEEPLES   06:42.26  546 

Report missing or incorrect license numbers

Volkswagen
USACDFSpyBonk BreakerSierra NevadaShimano
UCI USA Cycling is the official governing body for all disciplines of competitive cycling in the United States. The 501c3, membership-based organization aims both to achieve sustained success in international cycling competition and to grow competitive cycling in America while delivering an exceptional customer experience.
View Children's Online Privacy Protection Policy
US Olympic Committee